Regional Weather Roundup
Issued by NWS

Home | Current Version | Previous Version | Graphics & Text | Print | Product List | Glossary On
Versions: 1 2 3 4 5 6 7 8 9 10 11 12 13 14 15 16 17 18 19 20 21 22 23 24 25 26 27 28 29 30 31 32 33 34 35 36 37 38 39 40 41 42 43 44 45 46 47 48 49 50
000
ASUS45 KBOU 281310
RWRCO

WEATHER ROUNDUP FOR COLORADO
NATIONAL WEATHER SERVICE DENVER/BOULDER CO
700 AM MDT TUE JUL 28 2015

NOTE: "FAIR" INDICATES FEW OR NO CLOUDS BELOW 12000 FEET WITH NO
SIGNIFICANT WEATHER AND/OR OBSTRUCTIONS TO VISIBILITY.

COZ001>005-013-030-031-281400-
...NORTHWEST COLORADO...

CITY           SKY/WX    TMP DP  RH WIND       PRES   REMARKS
CRAIG          CLEAR     44  37  76 CALM      30.30R
HAYDEN         CLEAR     45  30  57 E3        30.30R
MEEKER         CLEAR     46  35  65 SE3       30.28R
MOUNT WERNER   NOT AVBL
STEAMBOAT SPGS CLEAR     43  35  74 CALM      30.31R
WALDEN         SUNNY     36  30  80 SE5       30.33R
$$

COZ006>008-011-281400-
...WEST CENTRAL VALLEYS...

CITY           SKY/WX    TMP DP  RH WIND       PRES   REMARKS
GRAND JUNCTION CLEAR     60  31  33 CALM      30.14R
MONTROSE       CLEAR     56  35  45 S8        30.22R
EAGLE          CLEAR     48  36  61 CALM      30.31R
RIFLE          CLEAR     53  35  50 CALM      30.22R
DELTA          CLEAR     56  34  43 NE5       30.18R
NUCLA          CLEAR     55  30  38 E7        30.23R
$$

COZ017>023-064>068-281400-
...SOUTHWEST COLORADO...

CITY           SKY/WX    TMP DP  RH WIND       PRES   REMARKS
DURANGO        CLEAR     49  35  58 N5        30.22R
CORTEZ         CLEAR     50  35  56 E6        30.19R
PAGOSA SPRINGS CLEAR     48  38  68 CALM      30.30R
TELLURIDE      CLEAR     49  31  49 SE7       30.42R
WOLF CREEK PAS NOT AVBL
$$

COZ009-010-012-014-032>034-037-058>063-281400-
...CENTRAL COLORADO...

CITY           SKY/WX    TMP DP  RH WIND       PRES   REMARKS
ASPEN          CLEAR     44  35  70 S7        30.32R
BUENA VISTA    CLEAR     50  31  48 CALM      30.31R
COPPER MTN     CLEAR     52  18  25 S10G23    30.56R
BERTHOUD PASS  FAIR      41  32  70 W20G41    30.57R
COTTONWOOD PAS CLEAR     59  19  21 CALM      30.43R
GUNNISON       NOT AVBL
KREMMLING      CLEAR     43  32  65 CALM      30.35R
LEADVILLE      CLEAR     41  28  60 NE7       30.42R
MONARCH PASS   CLEAR     45  25  45 W21       30.67R
SALIDA         CLEAR     56  30  37 NW3       30.35R
SUNLIGHT       CLEAR     50  28  43 CALM      30.52R
WILKERSON PASS MOSUNNY   48  19  32 SW10G18   30.52S
$$

COZ069>075-281400-
...SAN LUIS VALLEY/SANGRE DE CRISTO MOUNTAINS...

CITY           SKY/WX    TMP DP  RH WIND       PRES   REMARKS
ALAMOSA        PTCLDY    49  43  80 CALM      30.29R
LA VETA PASS   MOSUNNY   54  36  50 MISG      30.48R
SAGUACHE       CLEAR     48  36  61 N8        30.32R
$$

COZ035-036-038>040-281400-
...NORTHERN COLORADO FRONT RANGE...

CITY           SKY/WX    TMP DP  RH WIND       PRES   REMARKS
DENVER INTL AP MOSUNNY   56  39  53 S10       30.13R
DMNS CITY PARK   N/A     63  37  37 SE13      30.14R
AURORA         MOSUNNY   59  36  43 SE12      30.16R
FRONT RANGE AP MOSUNNY   55  37  50 SE8       30.14
ERIE MUNI ARPT SUNNY     64  35  34 S10       30.11R
BOULDER MUN AP SUNNY     63  37  39 SE8       30.10R
CENTENNIAL     MOSUNNY   60  36  40 S10       30.16R
BROOMFIELD     MOSUNNY   59  39  47 E7        30.15R
FORT COLLINS   SUNNY     63  43  48 SW5       30.11R
LONGMONT       SUNNY     61  45  55 CALM      30.11S
$$

COZ041-046-047-076>085-087-088-281400-
...PIKES PEAK/PALMER DIVIDE AND SOUTHERN FOOTHILLS...

CITY           SKY/WX    TMP DP  RH WIND       PRES   REMARKS
COLO. SPRINGS  MOSUNNY   63  36  36 N18G26    30.19R
A. F. ACADEMY  SUNNY     58  37  45 NW5       30.20R
ELLICOTT       SUNNY    N/A N/A N/A NE20      30.15R
FALCON         SUNNY     56  34  42 N12       30.23R
FORT CARSON    SUNNY     61  39  45 N7        30.15R
LIMON          MOSUNNY   59  31  34 N23G30    30.12R
MONUMENT HILL  SUNNY     52  36  54 SE8       30.23R
TRINIDAD       PTSUNNY   69  43  38 NE6       30.16R
$$

COZ042>045-048>051-090-091-281400-
...NORTHEAST COLORADO...

CITY           SKY/WX    TMP DP  RH WIND       PRES   REMARKS
GREELEY ARPT   SUNNY     63  37  39 W3        30.10R
AKRON            N/A    N/A N/A N/A MISG      30.09R
BURLINGTON     SUNNY     65  45  48 N16       30.04R
WRAY           SUNNY     66  47  51 NW13G21   30.01R
STERLING       NOT AVBL
HOLYOKE        SUNNY     64  46  52 NW14      30.04R
FORT MORGAN    SUNNY     60  34  38 NE6       30.10R
$$

COZ086-089-092>099-281400-
...SOUTHEAST COLORADO...

CITY           SKY/WX    TMP DP  RH WIND       PRES   REMARKS
PUEBLO         SUNNY     66  41  40 NW5       30.10R
LA JUNTA       SUNNY     70  40  33 N7        30.06R
LAMAR          SUNNY     70  43  37 N6        30.00R
SPRINGFIELD      N/A     73  49  42 N17       30.04R
$$


USA.gov is the U.S. government's official web portal to all federal, state and local government web resources and services.